Location: Observatoire
(46.1952°N, 5.3391°E)
Time: 15:40:31
(UTC+01:00)

Courier 1B - Pass Details

Date: 25 February 2026
Orbit: 962 x 1208 km, 28.3° (Epoch: 5 March)

Event Time Altitude Azimuth Distance (km) Brightness Sun altitude
Rises 19:16:37 0° 237° (WSW) 3,748 11.7 -10.7°
Reaches altitude 10° 19:20:13 10° 219° (SW) 2,841 10.5 -11.3°
Maximum altitude 19:24:34 18° 180° (S) 2,380 9.5 -12.1°
Drops below altitude 10° 19:29:04 10° 141° (SE) 2,958 9.6 -12.9°
Enters shadow 19:30:35 - 132° (SE) 3,321 9.8 -13.1°
